Left ArrowRight Arrow

41.55636, -103.73856

Hourly Observations for June 16, 2024

Temp ( °F °C ) Dew Point ( °F °C ) Humidity (%) Winds ( mph kmh ) Pressure ( in mb ) Visibility ( mi km ) Precip ( " mm )
12:55 am 00:55 Clear 65 18.6 49 9.6 56 56 S 22 35 29.62 1003 10 16 0.00 0.00
1:55 am 01:55 Clear 69 20.3 47 8.3 46 46 SSW 16 26 29.62 1003 10 16 0.00 0.00
2:55 am 02:55 Clear 65 18.4 48 8.9 54 54 S 16 26 29.62 1003 10 16 0.00 0.00
3:55 am 03:55 Clear 64 17.9 47 8.5 54 54 SSW 9 15 29.62 1003 10 16 0.00 0.00
4:55 am 04:55 Clear 61 16.2 43 6.3 52 52 WNW 15 24 29.67 1005 10 16 0.00 0.00
5:55 am 05:55 Sunny 55 12.5 47 8.2 75 75 WNW 15 24 29.72 1007 10 16 0.00 0.00
6:55 am 06:55 Sunny 57 13.8 46 7.8 67 67 NNW 10 17 29.76 1008 10 16 0.00 0.00
7:55 am 07:55 Sunny 59 15 45 7 59 59 N 8 13 29.75 1008 10 16 0.00 0.00
8:55 am 08:55 Sunny 61 16.2 44 6.9 54 54 NNE 10 17 29.77 1008 10 16 0.00 0.00
9:55 am 09:55 Sunny 63 17.2 44 6.7 50 50 NE 7 11 29.75 1008 10 16 0.00 0.00
10:55 am 10:55 Sunny 67 19.6 39 3.7 35 35 NE 12 19 29.75 1008 10 16 0.00 0.00
11:55 am 11:55 Sunny 71 21.4 38 3.6 31 31 ENE 9 15 29.72 1007 10 16 0.00 0.00
12:55 pm 12:55 Sunny 72 22.3 41 4.8 32 32 E 9 15 29.71 1006 10 16 0.00 0.00
1:55 pm 13:55 Sunny 74 23.6 43 5.9 32 32 E 13 20 29.69 1005 10 16 0.00 0.00
2:55 pm 14:55 Sunny 78 25.5 46 7.6 32 32 ENE 13 20 29.66 1004 10 16 0.00 0.00
3:55 pm 15:55 Sunny 78 25.8 49 9.2 35 35 E 16 26 29.65 1004 10 16 0.00 0.00
4:55 pm 16:55 Sunny 79 26.2 51 10.3 37 37 SE 13 20 29.65 1004 10 16 0.00 0.00
5:55 pm 17:55 Sunny 76 24.7 52 10.9 42 42 E 8 13 29.65 1004 10 16 0.00 0.00
6:55 pm 18:55 Partly Cloudy 75 24.1 53 11.7 46 46 E 12 19 29.64 1004 10 16 0.00 0.00
7:55 pm 19:55 Mostly Cloudy 72 22.2 54 12.2 53 53 E 14 22 29.63 1003 10 16 0.00 0.00
8:55 pm 20:55 Mostly Cloudy 69 20.4 54 12.4 60 60 E 13 20 29.65 1004 10 16 0.00 0.00
9:55 pm 21:55 Partly Cloudy 66 19 54 12 64 64 ESE 16 26 29.67 1005 10 16 0.00 0.00
10:55 pm 22:55 Clear 62 16.9 54 12.2 74 74 ENE 7 11 29.61 1003 10 16 0.00 0.00
11:55 pm 23:55 Clear 60 15.4 54 12.1 81 81 E 9 15 29.61 1003 10 16 0.00 0.00

Powered by Vaisala Xweather